Time,TemperatureF,DewpointF,PressureIn,WindDirection,WindDirectionDegrees,WindSpeedMPH,WindSpeedGustMPH,Humidity,HourlyPrecipIn,Conditions,Clouds,dailyrainin,SoftwareType,DateUTC
2013-04-23 00:14:00,44.3,34.0,30.48,East,101,2.0,8.0,67,0.00,,,0.00,weatherlink.com 1.10,2013-04-23 04:14:00,
2013-04-23 00:29:00,44.0,34.0,30.48,ENE,74,2.0,6.0,67,0.00,,,0.00,weatherlink.com 1.10,2013-04-23 04:29:00,
2013-04-23 00:44:00,43.8,33.0,30.48,ENE,66,2.0,8.0,66,0.00,,,0.00,weatherlink.com 1.10,2013-04-23 04:44:00,
2013-04-23 00:59:00,43.6,33.0,30.47,SE,131,1.0,8.0,67,0.00,,,0.00,weatherlink.com 1.10,2013-04-23 04:59:00,
2013-04-23 01:14:00,43.4,34.0,30.47,ESE,121,1.0,8.0,69,0.00,,,0.00,weatherlink.com 1.10,2013-04-23 05:14:00,
2013-04-23 01:29:00,43.0,34.0,30.47,East,89,0.0,4.0,71,0.00,,,0.00,weatherlink.com 1.10,2013-04-23 05:29:00,
2013-04-23 01:44:00,42.8,34.0,30.46,NE,55,1.0,5.0,71,0.00,,,0.00,weatherlink.com 1.10,2013-04-23 05:44:00,
2013-04-23 01:59:00,42.7,34.0,30.46,ESE,104,0.0,4.0,71,0.00,,,0.00,weatherlink.com 1.10,2013-04-23 05:59:00,
2013-04-23 02:14:00,42.7,35.0,30.45,ESE,120,1.0,3.0,73,0.00,,,0.00,weatherlink.com 1.10,2013-04-23 06:14:00,
2013-04-23 02:29:00,42.5,34.0,30.44,East,87,2.0,7.0,72,0.00,,,0.00,weatherlink.com 1.10,2013-04-23 06:29:00,
2013-04-23 02:44:00,42.0,34.0,30.44,ENE,76,1.0,6.0,72,0.00,,,0.00,weatherlink.com 1.10,2013-04-23 06:44:00,
2013-04-23 02:59:00,41.5,33.0,30.43,East,84,0.0,6.0,73,0.00,,,0.00,weatherlink.com 1.10,2013-04-23 06:59:00,
2013-04-23 03:14:00,41.2,34.0,30.43,East,99,1.0,6.0,74,0.00,,,0.00,weatherlink.com 1.10,2013-04-23 07:14:00,
2013-04-23 03:29:00,41.1,33.0,30.42,ENE,68,1.0,5.0,74,0.00,,,0.00,weatherlink.com 1.10,2013-04-23 07:29:00,
2013-04-23 03:44:00,40.8,33.0,30.42,ESE,122,1.0,6.0,74,0.00,,,0.00,weatherlink.com 1.10,2013-04-23 07:44:00,
2013-04-23 03:59:00,40.8,33.0,30.42,NE,54,2.0,6.0,74,0.00,,,0.00,weatherlink.com 1.10,2013-04-23 07:59:00,
2013-04-23 04:14:00,40.9,33.0,30.41,East,99,1.0,9.0,74,0.00,,,0.00,weatherlink.com 1.10,2013-04-23 08:14:00,
2013-04-23 04:29:00,40.7,33.0,30.41,NNE,30,2.0,7.0,74,0.00,,,0.00,weatherlink.com 1.10,2013-04-23 08:29:00,
2013-04-23 04:44:00,40.2,33.0,30.41,ESE,102,0.0,3.0,75,0.00,,,0.00,weatherlink.com 1.10,2013-04-23 08:44:00,
2013-04-23 04:59:00,39.8,32.0,30.41,ENE,71,3.0,6.0,74,0.00,,,0.00,weatherlink.com 1.10,2013-04-23 08:59:00,
2013-04-23 05:15:00,39.4,31.0,30.41,ESE,108,3.0,4.0,73,0.00,,,0.00,weatherlink.com 1.10,2013-04-23 09:15:00,
2013-04-23 05:30:00,39.2,32.0,30.41,ESE,105,2.0,4.0,74,0.00,,,0.00,weatherlink.com 1.10,2013-04-23 09:30:00,
2013-04-23 05:45:00,39.3,32.0,30.40,SE,125,0.0,4.0,74,0.00,,,0.00,weatherlink.com 1.10,2013-04-23 09:45:00,
2013-04-23 06:00:00,39.4,32.0,30.40,NNE,16,2.0,8.0,74,0.00,,,0.00,weatherlink.com 1.10,2013-04-23 10:00:00,
2013-04-23 06:15:00,39.5,32.0,30.40,East,96,1.0,4.0,74,0.00,,,0.00,weatherlink.com 1.10,2013-04-23 10:15:00,
2013-04-23 06:30:00,39.6,32.0,30.40,SE,129,0.0,5.0,74,0.00,,,0.00,weatherlink.com 1.10,2013-04-23 10:30:00,
2013-04-23 06:45:00,39.7,32.0,30.40,ESE,114,0.0,4.0,74,0.00,,,0.00,weatherlink.com 1.10,2013-04-23 10:45:00,
2013-04-23 07:00:00,39.9,32.0,30.39,East,80,1.0,8.0,74,0.00,,,0.00,weatherlink.com 1.10,2013-04-23 11:00:00,
2013-04-23 07:15:00,40.0,32.0,30.39,East,96,1.0,5.0,73,0.00,,,0.00,weatherlink.com 1.10,2013-04-23 11:15:00,
2013-04-23 07:30:00,40.1,32.0,30.40,East,96,3.0,6.0,73,0.00,,,0.00,weatherlink.com 1.10,2013-04-23 11:30:00,
2013-04-23 07:45:00,40.2,32.0,30.39,East,84,1.0,7.0,73,0.00,,,0.00,weatherlink.com 1.10,2013-04-23 11:45:00,
2013-04-23 08:00:00,40.9,33.0,30.38,NNE,30,4.0,6.0,72,0.00,,,0.00,weatherlink.com 1.10,2013-04-23 12:00:00,
2013-04-23 08:15:00,40.9,33.0,30.38,NE,41,1.0,6.0,72,0.00,,,0.00,weatherlink.com 1.10,2013-04-23 12:15:00,
2013-04-23 08:30:00,41.1,33.0,30.38,ESE,121,2.0,6.0,72,0.00,,,0.00,weatherlink.com 1.10,2013-04-23 12:30:00,
2013-04-23 08:45:00,41.6,33.0,30.38,ESE,108,3.0,4.0,72,0.00,,,0.00,weatherlink.com 1.10,2013-04-23 12:45:00,
2013-04-23 09:00:00,41.6,33.0,30.38,NNE,18,4.0,10.0,72,0.00,,,0.00,weatherlink.com 1.10,2013-04-23 13:00:00,
2013-04-23 09:15:00,42.0,34.0,30.37,NNW,339,0.0,6.0,73,0.00,,,0.00,weatherlink.com 1.10,2013-04-23 13:15:00,
2013-04-23 09:30:00,42.4,34.0,30.37,NW,323,1.0,6.0,72,0.00,,,0.00,weatherlink.com 1.10,2013-04-23 13:30:00,
2013-04-23 09:45:00,42.5,34.0,30.37,ESE,116,3.0,5.0,73,0.00,,,0.00,weatherlink.com 1.10,2013-04-23 13:45:00,
2013-04-23 10:00:00,42.6,36.0,30.36,NE,34,2.0,5.0,76,0.00,,,0.00,weatherlink.com 1.10,2013-04-23 14:00:00,
2013-04-23 10:15:00,42.3,36.0,30.36,East,97,1.0,7.0,79,0.00,,,0.00,weatherlink.com 1.10,2013-04-23 14:15:00,
2013-04-23 10:30:00,42.8,38.0,30.36,NW,322,1.0,5.0,82,0.00,,,0.00,weatherlink.com 1.10,2013-04-23 14:30:00,
2013-04-23 10:45:00,42.9,38.0,30.36,ESE,108,3.0,5.0,82,0.00,,,0.00,weatherlink.com 1.10,2013-04-23 14:45:00,
2013-04-23 11:00:00,42.5,37.0,30.35,NNE,29,2.0,7.0,82,0.00,,,0.00,weatherlink.com 1.10,2013-04-23 15:00:00,
2013-04-23 11:15:00,42.7,37.0,30.34,West,278,1.0,5.0,81,0.00,,,0.00,weatherlink.com 1.10,2013-04-23 15:15:00,
2013-04-23 11:30:00,43.4,37.0,30.34,SE,145,0.0,9.0,79,0.00,,,0.00,weatherlink.com 1.10,2013-04-23 15:30:00,
2013-04-23 11:45:00,43.5,39.0,30.34,NNE,15,3.0,8.0,83,0.00,,,0.00,weatherlink.com 1.10,2013-04-23 15:45:00,
2013-04-23 12:00:00,43.2,40.0,30.33,NW,304,0.0,5.0,88,0.00,,,0.00,weatherlink.com 1.10,2013-04-23 16:00:00,
2013-04-23 12:15:00,43.1,40.0,30.32,ESE,108,0.0,4.0,89,0.00,,,0.00,weatherlink.com 1.10,2013-04-23 16:15:00,
2013-04-23 12:30:00,43.5,40.0,30.32,NNE,27,2.0,3.0,88,0.00,,,0.00,weatherlink.com 1.10,2013-04-23 16:30:00,
2013-04-23 12:45:00,43.6,40.0,30.30,SE,127,0.0,4.0,86,0.00,,,0.00,weatherlink.com 1.10,2013-04-23 16:45:00,
2013-04-23 13:00:00,43.8,40.0,30.29,North,360,0.0,6.0,85,0.00,,,0.00,weatherlink.com 1.10,2013-04-23 17:00:00,
2013-04-23 13:15:00,44.2,39.0,30.29,SE,142,0.0,7.0,83,0.00,,,0.00,weatherlink.com 1.10,2013-04-23 17:15:00,
2013-04-23 13:30:00,44.7,40.0,30.27,SSW,201,1.0,6.0,82,0.00,,,0.00,weatherlink.com 1.10,2013-04-23 17:30:00,
2013-04-23 13:46:00,44.8,40.0,30.27,ESE,120,2.0,7.0,82,0.00,,,0.00,weatherlink.com 1.10,2013-04-23 17:46:00,
2013-04-23 14:01:00,45.8,40.0,30.26,East,94,0.0,4.0,81,0.00,,,0.00,weatherlink.com 1.10,2013-04-23 18:01:00,
2013-04-23 14:16:00,46.2,40.0,30.26,WNW,299,1.0,6.0,79,0.00,,,0.00,weatherlink.com 1.10,2013-04-23 18:16:00,
2013-04-23 14:31:00,47.1,40.0,30.25,SSE,154,2.0,9.0,77,0.00,,,0.00,weatherlink.com 1.10,2013-04-23 18:31:00,
2013-04-23 14:46:00,47.5,41.0,30.24,WNW,295,0.0,3.0,77,0.00,,,0.00,weatherlink.com 1.10,2013-04-23 18:46:00,
2013-04-23 15:01:00,47.8,41.0,30.24,SW,226,0.0,2.0,76,0.00,,,0.00,weatherlink.com 1.10,2013-04-23 19:01:00,
2013-04-23 15:16:00,48.3,41.0,30.23,East,82,0.0,7.0,75,0.00,,,0.00,weatherlink.com 1.10,2013-04-23 19:16:00,
2013-04-23 15:31:00,48.2,40.0,30.23,SSE,152,0.0,6.0,74,0.00,,,0.00,weatherlink.com 1.10,2013-04-23 19:31:00,
2013-04-23 15:46:00,48.4,41.0,30.23,South,177,0.0,4.0,75,0.00,,,0.00,weatherlink.com 1.10,2013-04-23 19:46:00,
2013-04-23 16:01:00,48.9,41.0,30.23,ESE,114,1.0,5.0,74,0.00,,,0.00,weatherlink.com 1.10,2013-04-23 20:01:00,
2013-04-23 16:16:00,49.0,41.0,30.23,WSW,240,1.0,4.0,74,0.00,,,0.00,weatherlink.com 1.10,2013-04-23 20:16:00,
2013-04-23 16:31:00,49.2,41.0,30.24,SW,229,1.0,3.0,74,0.00,,,0.00,weatherlink.com 1.10,2013-04-23 20:31:00,
2013-04-23 16:46:00,49.5,42.0,30.24,SW,226,0.0,2.0,74,0.00,,,0.00,weatherlink.com 1.10,2013-04-23 20:46:00,
2013-04-23 17:01:00,49.8,41.0,30.23,North,6,2.0,3.0,73,0.00,,,0.00,weatherlink.com 1.10,2013-04-23 21:01:00,
2013-04-23 17:16:00,50.0,42.0,30.22,North,350,0.0,5.0,73,0.00,,,0.00,weatherlink.com 1.10,2013-04-23 21:16:00,
2013-04-23 17:31:00,50.4,42.0,30.21,ESE,113,3.0,5.0,72,0.00,,,0.00,weatherlink.com 1.10,2013-04-23 21:31:00,
2013-04-23 17:46:00,52.0,42.0,30.19,ESE,103,0.0,5.0,70,0.00,,,0.00,weatherlink.com 1.10,2013-04-23 21:46:00,
2013-04-23 18:01:00,52.2,42.0,30.19,SW,224,1.0,3.0,69,0.00,,,0.00,weatherlink.com 1.10,2013-04-23 22:01:00,
2013-04-23 18:17:00,51.7,43.0,30.19,West,265,0.0,3.0,71,0.00,,,0.00,weatherlink.com 1.10,2013-04-23 22:17:00,
2013-04-23 18:31:00,51.4,42.0,30.19,East,90,3.0,3.0,71,0.00,,,0.00,weatherlink.com 1.10,2013-04-23 22:31:00,
2013-04-23 18:46:00,51.4,42.0,30.18,South,186,1.0,2.0,71,0.00,,,0.00,weatherlink.com 1.10,2013-04-23 22:46:00,
2013-04-23 19:01:00,51.1,42.0,30.18,SSW,202,0.0,2.0,71,0.00,,,0.00,weatherlink.com 1.10,2013-04-23 23:01:00,
2013-04-23 19:16:00,50.9,42.0,30.17,East,101,0.0,3.0,71,0.00,,,0.00,weatherlink.com 1.10,2013-04-23 23:16:00,
2013-04-23 19:31:00,50.7,42.0,30.17,North,11,0.0,3.0,72,0.00,,,0.00,weatherlink.com 1.10,2013-04-23 23:31:00,
2013-04-23 19:46:00,50.7,42.0,30.16,SE,140,0.0,2.0,72,0.00,,,0.00,weatherlink.com 1.10,2013-04-23 23:46:00,
2013-04-23 20:01:00,50.5,42.0,30.16,West,276,0.0,2.0,72,0.00,,,0.00,weatherlink.com 1.10,2013-04-24 00:01:00,
2013-04-23 20:16:00,49.9,41.0,30.14,ENE,78,0.0,3.0,72,0.00,,,0.00,weatherlink.com 1.10,2013-04-24 00:16:00,
2013-04-23 20:31:00,49.2,41.0,30.13,ENE,72,1.0,2.0,73,0.00,,,0.00,weatherlink.com 1.10,2013-04-24 00:31:00,
2013-04-23 20:46:00,48.5,41.0,30.13,SW,235,0.0,1.0,75,0.00,,,0.00,weatherlink.com 1.10,2013-04-24 00:46:00,
2013-04-23 21:02:00,48.2,41.0,30.14,WSW,257,0.0,1.0,76,0.00,,,0.00,weatherlink.com 1.10,2013-04-24 01:02:00,
2013-04-23 21:17:00,48.5,41.0,30.15,North,1,0.0,1.0,75,0.00,,,0.00,weatherlink.com 1.10,2013-04-24 01:17:00,
2013-04-23 21:32:00,48.6,41.0,30.15,NNW,340,0.0,2.0,74,0.00,,,0.00,weatherlink.com 1.10,2013-04-24 01:32:00,
2013-04-23 21:47:00,48.4,41.0,30.15,SE,130,0.0,2.0,75,0.00,,,0.00,weatherlink.com 1.10,2013-04-24 01:47:00,
2013-04-23 22:02:00,48.0,40.0,30.15,North,8,0.0,0.0,75,0.00,,,0.00,weatherlink.com 1.10,2013-04-24 02:02:00,
2013-04-23 22:17:00,47.5,40.0,30.14,NNE,19,0.0,0.0,76,0.00,,,0.00,weatherlink.com 1.10,2013-04-24 02:17:00,
2013-04-23 22:32:00,46.7,40.0,30.14,ESE,111,0.0,0.0,77,0.00,,,0.00,weatherlink.com 1.10,2013-04-24 02:32:00,
2013-04-23 23:02:00,45.9,40.0,30.13,SE,136,0.0,0.0,79,0.00,,,0.00,weatherlink.com 1.10,2013-04-24 03:02:00,
2013-04-23 23:17:00,45.5,39.0,30.13,SW,218,0.0,0.0,79,0.00,,,0.00,weatherlink.com 1.10,2013-04-24 03:17:00,
2013-04-23 23:47:00,43.9,39.0,30.12,SSE,165,0.0,0.0,82,0.00,,,0.00,weatherlink.com 1.10,2013-04-24 03:47:00,